User: anonymous
Location: Key Biscayne
(25.6930°N, 80.1630°W)
Time: 13:53:17
(UTC-04:00)
Language:

CZ-2D R/B - Orbit

View from above orbital plane
View from above orbital plane
View from above satellite
View from above satellite

Ground track
Ground track

The orbit data is extracted from the following two-line orbital elements,

1 28738U 05024B   14271.76516882  .00002426  00000-0  16531-3 0  8685
2 28738 097.6228 306.1200 0014149 160.6465 199.5303 15.07129344506066
Epoch (UTC): 28 September 2014 18:21:50
Eccentricity: 0.0014149
inclination: 97.6228°
perigee height: 535 km
apogee height: 555 km
right ascension of ascending node: 306.1200°
argument of perigee: 160.6465°
revolutions per day: 15.07129344
mean anomaly at epoch: 199.5303°
orbit number at epoch: 50606

The dashed part of the orbit path shows where the satellite is in the earth's shadow,  

DLR